Starlink 34224

operational
NORAD ID: 64251 Int'l Des: 2025-119 Owner: SPXS Country: US Constellation: starlink
LEOCIRCULAR

Über Starlink 34224

Beschreibung wird geladen...

Live-Position

3D-Globus wird geladen...

Nächste Überflüge

Höhenverlauf

Altitude vs Time

uPlot chart will show altitude changes over time

Zweizeiliger Elementsatz

1 64251U 25119U 25307.96134709 .00023570 00000-0 86323-3 0 9994
2 64251 43.0019 296.8554 0000601 280.9193 79.1591 15.27582437 24940
Epoch: 3. Nov. 2025 • Age: 15 hours

Aktueller Status

Höhe 486.3 km
Geschwindigkeit 7.62 km/s
Subsatellitenpunkt -16.86°S, 123.23°W
Startdatum 3. Juni 2025
Alter 0.4 years
Typ internet

Technische Details

Klassifizierung Payload
Masse 575.00 kg
Trockenmasse 530.00 kg
Gesamtmasse 575.00 kg
Länge 0.30 m
Durchmesser 4.10 m
Spannweite 29.00 m
Form Box + pan
Hersteller SPXS
Bus-Typ Starlink V2MO
Phasenstatus In Orbit
Besitzer/Staat SPXS/US

Große Konstellationen

Loading constellations...